When you browse on this site, cookies collect data to enhance your experience and personalize the content and advertising you see.
Visit our Privacy Policy to learn more. By continuing to use the site, you agree to this use of cookies and data.
  • In United Kingdom
  • List of Countries
  • For 7 days
  • Water Temperature
  • Weather Map
  • Weather Widgets
  • user-avatar
    Login

    Hourly Weather Kaprun

    Today, 17 September, Tuesday

    Time Temperature Precipitation Wind Pressure Humidity
    00:00 +9°C° 0 mm 1 mps 600 mmHg 93%
    01:00 +9°C° 0 mm 1 mps 600 mmHg 93%
    02:00 +9°C° 0 mm 1 mps 599 mmHg 93%
    03:00 +8°C° 0 mm 1 mps 599 mmHg 93%
    04:00 +8°C° 0 mm 1 mps 599 mmHg 93%
    05:00 +9°C° 0 mm 1 mps 599 mmHg 93%
    06:00 +9°C° 0 mm 1 mps 599 mmHg 93%
    07:00 +10°C° 0 mm 1 mps 600 mmHg 96%
    08:00 +12°C° 0.1 mm 1 mps 600 mmHg 88%
    09:00 +13°C° 0.1 mm 1 mps 601 mmHg 79%
    10:00 +14°C° 0.1 mm 1 mps 601 mmHg 71%
    11:00 +15°C° 0.2 mm 1 mps 601 mmHg 69%
    12:00 +15°C° 0.2 mm 2 mps 601 mmHg 68%
    13:00 +15°C° 0.2 mm 2 mps 601 mmHg 66%
    14:00 +15°C° 0.2 mm 2 mps 601 mmHg 68%
    15:00 +14°C° 0.2 mm 2 mps 600 mmHg 70%
    16:00 +13°C° 0.2 mm 2 mps 600 mmHg 72%
    17:00 +12°C° 0.1 mm 2 mps 599 mmHg 80%
    18:00 +9°C° 0.1 mm 2 mps 599 mmHg 88%
    19:00 +7°C° 0.1 mm 2 mps 598 mmHg 95%
    20:00 +7°C° 0.1 mm 2 mps 599 mmHg 96%
    21:00 +7°C° 0.1 mm 2 mps 599 mmHg 96%
    22:00 +7°C° 0.1 mm 2 mps 599 mmHg 97%
    23:00 +7°C° 0.1 mm 2 mps 599 mmHg 97%

    Tomorrow, 18 September, Wednesday

    Time Temperature Precipitation Wind Pressure Humidity
    00:00 +6°C° 0.1 mm 2 mps 599 mmHg 97%
    01:00 +6°C° 0.1 mm 2 mps 599 mmHg 97%
    02:00 +6°C° 0 mm 2 mps 599 mmHg 97%
    03:00 +5°C° 0 mm 2 mps 599 mmHg 96%
    04:00 +5°C° 0 mm 2 mps 599 mmHg 96%
    05:00 +5°C° 0 mm 2 mps 599 mmHg 96%
    06:00 +4°C° 0 mm 2 mps 599 mmHg 95%
    07:00 +5°C° 0 mm 1 mps 599 mmHg 95%
    08:00 +6°C° 0 mm 1 mps 600 mmHg 90%
    09:00 +6°C° 0 mm 1 mps 600 mmHg 86%
    10:00 +7°C° 0 mm 1 mps 601 mmHg 82%
    11:00 +8°C° 0 mm 1 mps 601 mmHg 80%
    12:00 +8°C° 0 mm 1 mps 601 mmHg 78%
    13:00 +9°C° 0 mm 1 mps 601 mmHg 76%
    14:00 +8°C° 0 mm 1 mps 601 mmHg 77%
    15:00 +8°C° 0 mm 1 mps 600 mmHg 78%
    16:00 +8°C° 0 mm 1 mps 600 mmHg 79%
    17:00 +7°C° 0 mm 1 mps 600 mmHg 81%
    18:00 +6°C° 0 mm 1 mps 600 mmHg 84%
    19:00 +5°C° 0 mm 1 mps 600 mmHg 87%
    20:00 +4°C° 0 mm 1 mps 600 mmHg 88%
    21:00 +3°C° 0 mm 1 mps 599 mmHg 89%
    22:00 +2°C° 0 mm 1 mps 599 mmHg 91%
    23:00 +2°C° 0 mm 1 mps 599 mmHg 90%

    Day after tomorrow, 19 September, Thursday

    Time Temperature Precipitation Wind Pressure Humidity
    00:00 +1°C° 0 mm 1 mps 599 mmHg 89%
    01:00 +1°C° 0 mm 1 mps 599 mmHg 89%
    02:00 +1°C° 0 mm 1 mps 598 mmHg 86%
    03:00 0°C° 0 mm 1 mps 598 mmHg 84%
    04:00 0°C° 0 mm 1 mps 598 mmHg 82%
    05:00 +1°C° 0 mm 1 mps 598 mmHg 77%
    06:00 +2°C° 0 mm 1 mps 599 mmHg 73%
    07:00 +2°C° 0 mm 1 mps 599 mmHg 69%
    08:00 +4°C° 0 mm 1 mps 600 mmHg 62%
    09:00 +6°C° 0 mm 1 mps 601 mmHg 54%
    10:00 +7°C° 0 mm 2 mps 602 mmHg 46%
    11:00 +8°C° 0 mm 2 mps 603 mmHg 44%
    12:00 +9°C° 0 mm 2 mps 603 mmHg 42%
    13:00 +10°C° 0 mm 2 mps 603 mmHg 40%
    14:00 +9°C° 0 mm 2 mps 603 mmHg 44%
    15:00 +9°C° 0 mm 2 mps 603 mmHg 47%
    16:00 +8°C° 0 mm 2 mps 602 mmHg 50%
    17:00 +6°C° 0 mm 2 mps 601 mmHg 63%
    18:00 +4°C° 0 mm 1 mps 601 mmHg 76%
    19:00 +1°C° 0 mm 1 mps 600 mmHg 89%
    20:00 +1°C° 0 mm 1 mps 600 mmHg 88%
    21:00 +1°C° 0 mm 1 mps 600 mmHg 87%
    22:00 0°C° 0 mm 1 mps 600 mmHg 86%
    23:00 0°C° 0 mm 1 mps 600 mmHg 81%

    20 September, Friday

    Time Temperature Precipitation Wind Pressure Humidity
    00:00 0°C° 0 mm 1 mps 600 mmHg 77%
    01:00 0°C° 0 mm 1 mps 600 mmHg 72%
    02:00 0°C° 0 mm 1 mps 600 mmHg 69%
    03:00 0°C° 0 mm 1 mps 600 mmHg 66%
    04:00 0°C° 0 mm 1 mps 600 mmHg 63%
    05:00 +1°C° 0 mm 1 mps 600 mmHg 60%
    06:00 +2°C° 0 mm 1 mps 601 mmHg 57%
    07:00 +3°C° 0 mm 1 mps 601 mmHg 54%
    08:00 +5°C° 0 mm 1 mps 602 mmHg 47%
    09:00 +8°C° 0 mm 1 mps 603 mmHg 40%
    10:00 +10°C° 0 mm 1 mps 604 mmHg 33%
    11:00 +11°C° 0 mm 1 mps 604 mmHg 33%
    12:00 +12°C° 0 mm 1 mps 604 mmHg 33%
    13:00 +12°C° 0 mm 1 mps 604 mmHg 33%
    14:00 +12°C° 0 mm 1 mps 604 mmHg 37%
    15:00 +11°C° 0 mm 1 mps 604 mmHg 41%
    16:00 +11°C° 0 mm 1 mps 603 mmHg 45%
    17:00 +8°C° 0 mm 1 mps 602 mmHg 57%
    18:00 +6°C° 0 mm 1 mps 601 mmHg 69%
    19:00 +2°C° 0 mm 0 mps 600 mmHg 82%
    20:00 +2°C° 0 mm 0 mps 600 mmHg 81%
    21:00 +3°C° 0 mm 1 mps 601 mmHg 81%
    22:00 +3°C° 0 mm 1 mps 601 mmHg 80%
    23:00 +3°C° 0 mm 1 mps 601 mmHg 80%

    21 September, Saturday

    Time Temperature Precipitation Wind Pressure Humidity
    00:00 +3°C° 0 mm 1 mps 601 mmHg 81%
    01:00 +3°C° 0 mm 1 mps 601 mmHg 81%
    02:00 +3°C° 0 mm 1 mps 601 mmHg 81%
    03:00 +2°C° 0 mm 2 mps 601 mmHg 82%
    04:00 +2°C° 0 mm 2 mps 601 mmHg 82%
    05:00 +3°C° 0 mm 2 mps 601 mmHg 79%
    06:00 +5°C° 0 mm 1 mps 601 mmHg 77%
    07:00 +5°C° 0 mm 1 mps 601 mmHg 75%
    08:00 +8°C° 0 mm 1 mps 602 mmHg 66%
    09:00 +11°C° 0 mm 1 mps 604 mmHg 57%
    10:00 +14°C° 0 mm 1 mps 605 mmHg 47%
    11:00 +15°C° 0 mm 1 mps 605 mmHg 46%
    12:00 +16°C° 0 mm 1 mps 605 mmHg 44%
    13:00 +16°C° 0 mm 2 mps 605 mmHg 42%
    14:00 +16°C° 0 mm 2 mps 605 mmHg 46%
    15:00 +15°C° 0 mm 2 mps 604 mmHg 50%
    16:00 +15°C° 0 mm 2 mps 604 mmHg 54%
    17:00 +12°C° 0 mm 2 mps 603 mmHg 64%
    18:00 +9°C° 0 mm 2 mps 602 mmHg 74%
    19:00 +6°C° 0 mm 2 mps 601 mmHg 84%
    20:00 +6°C° 0 mm 2 mps 601 mmHg 85%
    21:00 +5°C° 0 mm 2 mps 601 mmHg 86%
    22:00 +5°C° 0 mm 2 mps 601 mmHg 87%
    23:00 +5°C° 0 mm 2 mps 601 mmHg 86%

    22 September, Sunday

    Time Temperature Precipitation Wind Pressure Humidity
    00:00 +5°C° 0 mm 2 mps 601 mmHg 84%
    01:00 +5°C° 0 mm 2 mps 601 mmHg 82%
    02:00 +6°C° 0 mm 1 mps 601 mmHg 79%
    03:00 +6°C° 0 mm 1 mps 601 mmHg 75%
    04:00 +6°C° 0 mm 1 mps 601 mmHg 72%
    05:00 +7°C° 0 mm 1 mps 601 mmHg 69%
    06:00 +6°C° 0 mm 2 mps 601 mmHg 66%
    07:00 +7°C° 0 mm 2 mps 602 mmHg 63%
    08:00 +10°C° 0 mm 2 mps 603 mmHg 56%
    09:00 +14°C° 0 mm 1 mps 604 mmHg 50%
    10:00 +16°C° 0 mm 1 mps 605 mmHg 43%
    11:00 +18°C° 0 mm 1 mps 605 mmHg 41%
    12:00 +18°C° 0 mm 2 mps 605 mmHg 39%
    13:00 +19°C° 0 mm 2 mps 605 mmHg 37%
    14:00 +18°C° 0 mm 2 mps 605 mmHg 43%
    15:00 +17°C° 0 mm 2 mps 604 mmHg 49%
    16:00 +17°C° 0 mm 2 mps 604 mmHg 55%
    17:00 +14°C° 0 mm 2 mps 603 mmHg 65%
    18:00 +12°C° 0 mm 2 mps 602 mmHg 74%
    19:00 +8°C° 0 mm 2 mps 601 mmHg 84%
    20:00 +8°C° 0 mm 2 mps 601 mmHg 85%
    21:00 +9°C° 0 mm 1 mps 601 mmHg 86%
    22:00 +8°C° 0 mm 1 mps 602 mmHg 88%
    23:00 +8°C° 0 mm 1 mps 601 mmHg 88%
    Show more